Wetbulb
57.16 57.06 56.83 56.65 56.54 56.47 56.21 56.02 55.59 55.83 55.93 56.10 55.25 55.59 55.39 55.46 54.75 51.49 46.75 52.10 52.56 56.73 56.85 52.57 50.46 49.46 50.71 49.60 50.04 49.28 43.52 40.94 42.44 43.64 45.88 51.06 50.05 53.57 56.08 56.70 58.38 58.41 56.03 59.60 72.14
56.83 56.67 56.41 56.46 56.45 56.25 56.22 55.92 55.80 55.67 55.72 55.51 55.51 55.13 55.18 54.75 51.21 47.63 53.99 55.34 57.43 58.28 52.73 49.82 46.50 48.17 47.32 48.21 48.19 47.74 42.74 42.43 46.23 47.63 47.17 49.53 50.38 52.11 52.26 53.60 55.31 56.72 58.33 70.02 72.18
56.33 56.50 56.28 56.31 56.17 56.10 55.78 56.05 56.27 56.12 55.66 55.41 54.65 54.82 54.61 53.83 45.88 47.33 55.76 57.16 59.31 59.67 51.99 50.37 49.94 47.21 44.35 47.00 46.16 44.69 42.79 45.49 46.57 48.99 49.99 48.66 49.46 51.51 51.23 51.01 54.38 55.72 55.45 60.78 70.23
56.02 55.95 55.94 55.94 55.85 55.78 55.48 55.90 56.07 55.98 55.60 55.05 54.59 54.33 54.63 51.13 41.65 57.08 60.07 58.75 60.94 57.84 50.92 48.99 47.66 44.71 43.17 42.37 46.13 42.37 44.85 46.56 47.06 48.84 49.16 48.19 50.26 49.32 51.03 52.66 56.08 57.19 57.46 57.61 59.76
55.52 55.67 55.49 55.43 55.42 55.45 55.61 55.66 55.71 55.50 55.01 54.80 54.30 54.67 51.54 45.04 46.33 51.43 61.26 59.97 58.47 54.16 49.05 47.83 45.85 44.88 42.10 43.47 43.95 43.41 44.46 45.47 47.48 48.11 48.15 48.77 47.25 47.71 49.20 52.93 55.67 56.48 58.61 57.57 57.90
55.03 55.00 54.83 54.66 54.78 55.11 55.47 55.49 55.61 55.38 55.00 54.12 54.21 54.70 48.21 41.61 53.44 55.69 60.19 58.41 56.93 52.98 48.22 48.09 47.07 48.07 45.33 44.74 43.78 44.93 44.79 44.89 45.92 46.27 47.29 46.35 46.67 47.62 48.56 51.63 52.06 54.40 55.97 57.55 58.86
55.19 55.00 54.29 54.31 54.53 54.28 55.10 54.87 54.93 55.02 54.91 53.71 54.59 52.54 46.47 46.97 56.48 60.34 60.68 57.33 56.95 52.90 47.03 48.25 48.60 47.46 47.46 45.01 47.68 46.19 43.38 46.22 45.36 45.28 44.70 46.75 43.56 44.59 48.98 50.77 51.13 54.73 57.23 58.65 59.94
54.20 54.07 54.59 54.24 54.74 54.86 55.02 54.93 54.73 54.82 54.60 53.88 55.16 50.73 44.28 53.14 54.89 53.26 56.68 54.92 56.45 52.13 51.03 50.05 50.05 47.54 47.42 48.12 46.60 43.98 42.76 41.40 47.33 45.29 45.17 45.05 39.37 46.14 50.06 50.21 49.97 51.61 53.47 56.49 59.70
54.34 54.02 54.11 54.35 54.88 54.80 54.67 54.52 54.74 56.05 53.24 54.43 51.10 47.64 43.70 55.07 51.85 54.39 55.38 52.70 53.37 52.34 51.39 50.98 49.38 45.69 46.07 43.80 42.12 41.97 40.10 40.20 43.10 46.07 45.24 44.06 41.96 47.32 50.31 49.93 50.03 52.33 54.68 55.98 58.87
54.01 54.12 53.83 54.08 54.41 54.20 54.14 54.01 54.02 54.58 53.62 52.85 51.24 43.98 47.86 48.83 52.87 53.66 55.60 54.09 50.54 49.75 47.47 46.04 44.69 42.43 42.71 41.71 37.25 39.59 38.93 40.85 41.19 44.85 44.43 43.29 43.58 47.29 49.47 49.60 50.40 52.89 53.12 54.29 57.22
53.63 53.23 53.19 53.17 53.19 53.42 52.58 50.09 47.50 47.13 48.45 45.50 46.64 46.15 48.41 53.27 55.53 52.26 53.90 50.25 49.83 46.67 41.04 43.06 40.07 39.09 42.56 43.92 44.48 43.00 42.04 41.52 44.73 46.88 43.79 43.53 43.86 46.10 48.90 50.32 50.83 52.22 52.54 55.05 57.71
52.97 52.90 52.82 53.27 53.17 52.67 51.05 46.09 49.39 50.70 45.13 49.57 48.98 48.74 51.57 53.04 49.14 50.43 54.00 47.97 46.67 42.77 43.93 40.59 38.16 42.98 45.15 44.60 42.81 42.57 41.17 41.65 44.85 45.77 44.27 44.11 43.58 46.94 47.83 49.07 51.93 51.04 53.02 54.69 57.13
52.34 52.28 52.22 52.40 52.15 50.32 48.14 47.66 52.16 52.10 44.51 47.26 49.08 48.54 49.87 51.57 48.68 49.74 51.24 48.68 45.66 43.19 42.59 40.74 42.86 45.91 43.45 43.30 41.58 42.44 41.43 42.01 41.88 45.03 45.46 43.40 42.65 44.57 47.48 48.16 49.48 50.72 53.49 54.27 55.80
52.59 51.91 51.90 52.33 49.13 48.43 45.88 51.66 52.98 51.89 41.64 43.30 45.86 49.40 50.74 51.86 47.39 54.52 51.96 49.16 46.34 43.58 43.72 43.02 46.16 43.57 43.19 42.31 43.95 40.56 45.22 44.28 43.49 42.09 39.64 44.07 38.54 43.67 45.52 46.53 47.65 50.20 51.39 52.48 53.59
52.26 52.97 52.22 52.14 47.34 45.26 49.27 52.02 52.35 50.20 30.88 45.91 47.35 54.72 51.69 49.10 49.51 49.41 51.52 48.88 44.85 44.25 44.26 41.75 43.05 42.75 42.11 43.46 45.38 43.29 45.94 45.02 44.47 42.71 41.56 41.70 40.28 43.35 45.45 44.75 47.75 50.14 51.34 53.20 55.11
52.47 52.22 52.05 49.70 48.62 49.20 51.55 51.03 51.01 40.06 29.95 43.81 48.44 46.42 46.23 47.91 47.39 48.83 47.54 50.75 50.49 46.09 45.42 44.39 47.31 45.98 45.51 46.47 45.91 46.44 44.33 43.40 42.93 42.32 36.94 40.27 40.41 41.53 44.33 45.83 48.37 49.92 50.86 52.31 54.39
52.00 51.72 50.55 49.92 44.82 50.75 50.62 47.54 39.34 33.32 44.86 44.28 44.11 45.96 45.66 44.30 45.47 46.68 45.03 43.93 42.44 39.00 39.31 42.71 43.64 46.75 47.27 44.31 45.87 45.19 43.01 37.11 35.47 35.62 35.37 40.62 39.74 43.20 45.76 47.92 48.82 50.68 51.14 53.30 55.47
50.87 50.11 49.72 49.97 50.93 50.73 50.51 44.15 33.20 39.43 39.87 46.79 45.41 45.64 42.23 44.31 44.97 44.92 43.82 41.56 45.39 44.30 40.74 37.39 35.44 43.44 46.96 44.78 43.14 42.88 43.59 37.99 30.72 32.45 36.11 40.62 37.95 43.03 47.86 49.32 50.14 51.51 52.71 53.96 54.21
50.11 49.00 47.35 49.29 50.90 49.85 44.12 37.09 37.17 39.95 44.05 44.60 44.09 41.15 42.06 43.71 44.43 44.06 43.35 42.58 44.24 45.16 39.52 38.07 38.13 46.36 47.61 47.75 46.92 42.19 40.00 43.77 38.90 37.85 37.36 39.91 41.99 47.04 47.82 47.68 49.32 50.14 51.70 51.96 52.29
47.56 44.66 44.54 50.51 51.67 47.14 40.05 37.69 41.88 46.25 47.28 46.00 39.86 42.44 38.43 41.51 41.16 42.33 41.65 45.39 44.18 46.17 48.02 43.44 37.99 44.97 46.62 48.46 47.10 45.38 46.14 39.95 41.19 32.46 30.97 36.53 38.02 41.07 45.07 46.09 48.41 49.07 49.84 50.26 50.09
45.97 39.59 47.68 52.02 50.74 43.75 35.96 38.85 43.18 47.99 47.77 44.35 42.72 40.98 41.35 40.44 42.08 41.19 41.83 45.49 46.91 45.36 47.08 46.02 42.11 41.15 44.44 43.73 42.99 42.81 42.33 41.74 42.74 40.48 34.81 33.06 37.47 46.44 47.30 48.52 48.60 49.33 49.81 50.04 50.36
43.04 35.58 47.99 51.94 44.06 43.56 39.28 42.55 44.70 46.00 47.82 47.41 47.11 44.84 41.89 42.89 41.13 41.51 41.18 44.51 47.65 46.41 42.27 44.28 42.50 38.41 39.95 44.16 45.84 45.23 42.98 43.59 38.99 36.81 39.23 39.16 38.53 46.65 47.81 49.15 49.64 48.43 48.05 48.74 49.58
39.71 39.31 48.56 50.69 38.68 40.86 43.98 43.12 45.09 44.42 45.21 45.59 44.75 45.17 45.23 42.79 38.31 41.04 42.96 46.32 47.97 47.05 44.97 45.95 40.62 35.03 37.47 41.44 44.10 42.75 42.92 42.13 42.41 41.75 38.27 35.78 37.88 45.98 46.55 46.41 47.24 46.31 46.62 47.26 47.79
41.71 34.69 43.29 47.62 45.63 40.92 40.20 41.07 40.34 45.25 43.90 46.24 44.86 45.26 42.87 40.80 42.63 40.75 41.45 44.02 47.38 47.38 49.53 48.13 41.04 38.83 34.13 36.56 42.06 40.16 42.10 42.25 42.49 37.57 38.36 38.50 40.76 43.51 45.30 46.26 46.26 46.10 46.72 46.84 47.18
42.39 36.98 42.10 37.15 38.80 39.10 41.34 41.64 39.57 39.57 44.90 45.69 43.40 43.74 41.32 37.62 38.37 39.08 41.34 42.50 44.19 46.03 44.31 45.61 39.43 41.09 40.51 41.90 41.44 41.17 41.16 41.31 40.36 41.52 37.56 39.92 40.21 44.65 46.44 46.98 46.95 46.70 47.18 46.74 46.80
40.55 39.99 41.49 38.87 40.76 40.21 40.51 39.30 38.78 40.45 41.07 40.10 41.48 41.98 41.81 37.40 38.97 38.61 41.18 41.52 41.90 44.08 43.05 42.63 38.49 40.01 37.56 39.92 40.14 38.60 40.64 41.25 41.48 41.94 41.55 41.62 41.20 47.15 46.03 47.10 45.20 45.68 45.88 45.75 45.45
47.03 46.68 41.61 38.19 37.75 37.09 38.66 38.33 39.23 40.15 43.28 43.36 42.97 40.99 40.06 40.25 41.99 42.64 44.21 43.24 43.36 42.44 40.92 41.11 39.81 37.67 33.85 37.40 37.71 34.78 39.42 40.66 41.49 42.85 42.73 38.95 43.70 45.78 43.37 44.97 45.35 45.19 45.64 44.82 44.94
MSLP
1020.00 1019.73 1019.47 1019.10 1018.87 1018.69 1018.48 1018.26 1017.96 1017.74 1017.43 1017.20 1016.89 1016.58 1016.33 1016.14 1015.89 1015.65 1014.17 1011.74 1011.83 1011.82 1012.15 1012.33 1012.42 1012.28 1012.34 1012.06 1012.00 1012.10 1011.11 1009.89 1009.81 1009.65 1008.79 1008.92 1008.56 1007.98 1007.78 1007.19 1006.86 1006.71 1006.10 1006.31 1007.16
1019.85 1019.50 1019.22 1018.99 1018.65 1018.39 1018.19 1017.92 1017.67 1017.43 1017.17 1016.94 1016.72 1016.49 1016.23 1016.13 1015.79 1014.30 1011.10 1011.17 1011.30 1011.71 1011.72 1011.51 1011.82 1012.02 1012.18 1012.03 1012.04 1011.48 1010.79 1010.24 1010.11 1009.60 1009.07 1008.85 1008.58 1008.20 1007.89 1007.18 1006.86 1006.81 1006.33 1006.54 1007.22
1019.74 1019.38 1019.04 1018.69 1018.39 1018.05 1017.74 1017.49 1017.26 1017.00 1016.74 1016.59 1016.44 1016.26 1016.06 1016.00 1015.11 1010.47 1009.46 1010.48 1010.88 1011.29 1011.18 1011.23 1011.49 1011.52 1011.71 1011.98 1011.83 1011.61 1010.64 1010.54 1010.18 1009.75 1009.37 1008.67 1008.64 1008.73 1008.05 1007.03 1006.76 1006.79 1006.14 1006.43 1006.87
1019.64 1019.31 1018.91 1018.52 1018.15 1017.78 1017.43 1017.09 1016.81 1016.60 1016.43 1016.24 1016.12 1015.99 1015.77 1015.78 1013.04 1009.45 1009.22 1010.05 1010.67 1011.15 1011.09 1011.15 1011.41 1011.19 1011.32 1011.30 1011.46 1011.37 1010.92 1010.43 1010.14 1009.96 1009.61 1009.09 1008.94 1008.33 1007.78 1007.06 1006.75 1007.12 1006.70 1006.46 1006.59
1019.51 1019.11 1018.72 1018.32 1017.95 1017.59 1017.22 1016.85 1016.51 1016.17 1015.92 1015.94 1015.89 1015.67 1015.55 1014.60 1011.57 1009.71 1009.80 1010.03 1010.58 1010.96 1010.59 1010.61 1010.81 1010.96 1010.76 1010.97 1011.26 1011.06 1010.35 1010.41 1009.96 1009.70 1009.47 1009.30 1008.66 1008.12 1007.53 1007.48 1006.88 1006.90 1006.90 1006.54 1006.57
1019.27 1018.91 1018.53 1018.16 1017.75 1017.34 1016.90 1016.41 1016.02 1015.77 1015.52 1015.44 1015.52 1015.44 1015.26 1012.98 1009.77 1009.69 1009.74 1010.06 1010.12 1010.34 1010.42 1010.45 1010.35 1010.50 1010.51 1010.58 1010.51 1010.14 1009.82 1009.54 1009.47 1009.23 1009.13 1008.95 1008.01 1008.01 1007.82 1007.78 1006.86 1006.54 1006.41 1006.41 1006.26
1019.06 1018.62 1018.20 1017.78 1017.45 1016.98 1016.51 1015.90 1015.37 1014.97 1014.81 1014.98 1015.01 1015.06 1014.38 1010.72 1009.67 1009.73 1009.92 1010.04 1010.13 1010.00 1009.98 1010.29 1010.33 1010.17 1010.29 1010.28 1010.21 1009.91 1009.71 1009.14 1008.68 1008.48 1008.53 1008.56 1007.70 1007.02 1007.71 1007.41 1006.80 1006.12 1005.74 1005.82 1005.73
1018.78 1018.35 1017.84 1017.38 1016.83 1016.48 1016.01 1015.43 1014.86 1014.19 1013.99 1014.39 1014.63 1014.58 1012.66 1009.82 1009.79 1009.90 1009.91 1010.14 1010.39 1010.19 1009.86 1010.12 1010.23 1010.33 1010.14 1010.12 1009.78 1009.61 1009.65 1008.41 1006.81 1007.46 1007.29 1007.98 1006.76 1006.52 1006.74 1006.53 1006.11 1006.02 1005.55 1005.36 1005.29
1018.31 1017.84 1017.36 1016.89 1016.36 1015.93 1015.50 1015.15 1014.45 1013.92 1013.48 1013.90 1014.39 1014.13 1010.89 1009.34 1009.22 1008.64 1009.12 1009.36 1010.21 1010.35 1010.05 1010.06 1010.18 1010.10 1010.12 1009.70 1009.42 1009.31 1008.31 1007.82 1007.02 1006.55 1006.57 1006.93 1005.98 1005.43 1005.50 1005.56 1005.36 1005.42 1005.22 1005.42 1005.07
1017.85 1017.35 1016.93 1016.45 1016.04 1015.67 1015.23 1014.81 1014.53 1014.11 1013.80 1013.76 1013.78 1013.87 1009.83 1007.70 1007.34 1007.84 1008.62 1008.90 1009.41 1009.99 1010.15 1009.92 1009.90 1009.68 1009.66 1009.35 1008.48 1008.24 1008.28 1007.47 1006.59 1006.08 1006.25 1005.93 1004.95 1004.31 1004.09 1004.49 1004.52 1004.54 1004.82 1004.93 1004.76
1017.50 1017.03 1016.56 1016.04 1015.57 1015.07 1014.83 1014.30 1014.21 1013.91 1013.22 1011.16 1010.35 1009.47 1007.54 1006.56 1006.56 1007.22 1007.73 1008.20 1008.79 1009.21 1009.05 1009.65 1009.17 1008.47 1008.27 1008.47 1008.17 1008.21 1007.90 1007.03 1005.81 1005.72 1005.67 1004.75 1003.94 1003.65 1003.94 1004.21 1003.99 1003.90 1004.51 1004.62 1004.45
1017.20 1016.56 1016.04 1015.50 1014.91 1014.42 1014.21 1013.49 1011.36 1011.12 1010.43 1009.05 1008.60 1008.30 1007.38 1006.83 1006.15 1006.45 1007.12 1007.13 1007.62 1007.83 1008.53 1009.30 1008.20 1007.90 1007.96 1008.11 1008.11 1007.94 1007.46 1006.22 1005.60 1005.03 1005.27 1004.41 1003.50 1003.02 1003.81 1003.68 1003.28 1003.55 1003.92 1003.93 1003.98
1017.09 1016.63 1016.03 1015.34 1014.47 1014.00 1013.57 1012.41 1011.12 1010.86 1009.95 1007.03 1006.74 1006.23 1005.88 1006.38 1005.72 1005.36 1006.00 1006.06 1006.33 1006.93 1007.40 1007.38 1006.98 1006.95 1007.64 1007.47 1007.34 1007.03 1006.57 1005.79 1005.44 1004.91 1004.53 1004.39 1003.72 1003.35 1003.13 1003.55 1003.40 1003.83 1003.68 1004.07 1003.89
1016.77 1016.30 1015.77 1015.08 1014.23 1014.25 1013.03 1011.49 1011.10 1011.18 1009.25 1005.97 1005.21 1004.04 1004.38 1004.58 1004.48 1004.01 1004.56 1004.86 1005.34 1005.59 1006.48 1006.70 1006.45 1006.62 1006.71 1006.46 1006.35 1005.71 1005.73 1005.51 1005.13 1005.01 1003.85 1004.43 1003.10 1003.13 1003.40 1003.13 1003.11 1003.52 1003.75 1003.88 1004.32
1016.03 1015.60 1015.15 1015.09 1014.38 1013.49 1011.59 1011.39 1010.92 1010.90 1008.16 1003.72 1003.61 1003.04 1003.10 1003.08 1002.58 1003.20 1003.49 1003.90 1004.18 1004.86 1005.64 1005.36 1005.50 1005.64 1005.51 1005.27 1005.37 1004.98 1004.93 1004.75 1004.76 1004.51 1004.48 1004.02 1003.32 1003.13 1003.52 1003.39 1003.68 1003.44 1004.02 1004.48 1004.93
1015.17 1014.78 1014.47 1014.07 1013.79 1011.76 1011.49 1011.82 1010.98 1009.57 1005.80 1002.64 1002.37 1002.55 1002.86 1002.47 1002.26 1002.76 1003.12 1003.39 1003.92 1004.50 1004.96 1004.87 1005.05 1004.89 1004.62 1004.51 1004.68 1004.85 1004.93 1004.95 1005.01 1004.70 1004.35 1004.03 1003.63 1003.01 1003.20 1003.33 1003.62 1004.40 1004.69 1005.28 1005.65
1014.59 1014.04 1013.76 1013.56 1011.82 1010.96 1011.31 1011.75 1010.67 1007.57 1004.57 1002.28 1001.74 1001.95 1001.81 1001.72 1001.98 1002.06 1002.47 1002.80 1003.03 1003.84 1004.07 1004.52 1004.41 1004.29 1004.23 1004.12 1004.43 1004.58 1004.50 1004.13 1004.43 1004.39 1003.98 1004.47 1003.91 1003.14 1003.75 1004.06 1004.24 1004.24 1004.92 1005.52 1005.86
1013.87 1012.84 1011.37 1010.85 1010.44 1010.67 1010.38 1010.44 1008.59 1006.01 1004.12 1002.32 1002.02 1001.55 1001.54 1001.47 1001.64 1001.76 1002.12 1002.36 1002.89 1003.22 1003.37 1003.71 1003.76 1003.64 1003.37 1003.32 1003.30 1003.77 1003.80 1003.45 1003.67 1004.10 1004.15 1004.83 1003.75 1003.41 1004.14 1004.41 1004.56 1004.83 1005.46 1006.05 1006.70
1012.95 1011.28 1010.72 1009.54 1009.96 1010.69 1009.40 1008.09 1005.48 1004.88 1003.57 1002.69 1002.28 1001.91 1001.44 1001.25 1001.11 1001.61 1001.69 1001.81 1002.11 1002.61 1002.83 1003.01 1003.11 1003.12 1003.06 1002.99 1003.21 1003.75 1003.97 1004.30 1004.28 1005.06 1004.61 1004.29 1004.28 1003.91 1004.23 1004.53 1004.88 1005.46 1006.01 1006.74 1007.39
1013.10 1011.50 1010.08 1009.33 1009.60 1010.17 1008.36 1004.90 1003.82 1003.08 1002.64 1002.63 1002.41 1002.38 1002.16 1001.18 1001.25 1001.27 1001.51 1001.19 1001.66 1002.08 1002.40 1002.81 1003.07 1003.23 1003.27 1003.17 1003.44 1003.21 1003.83 1004.43 1004.48 1004.66 1004.52 1004.45 1004.30 1003.45 1004.10 1004.80 1005.26 1005.74 1006.33 1007.16 1008.00
1013.24 1011.85 1009.52 1009.30 1009.45 1009.17 1006.54 1004.09 1003.05 1002.60 1002.78 1002.65 1002.08 1002.70 1002.78 1002.09 1001.73 1001.43 1001.23 1001.45 1001.25 1001.81 1002.42 1002.90 1003.65 1003.93 1003.78 1003.44 1003.28 1003.90 1003.74 1004.51 1004.88 1005.25 1004.80 1004.48 1004.23 1004.28 1004.27 1004.77 1005.38 1006.25 1007.07 1007.78 1008.50
1013.84 1011.99 1009.83 1009.80 1009.17 1007.59 1005.65 1004.18 1003.53 1002.82 1002.80 1002.55 1002.23 1002.26 1002.99 1003.30 1002.97 1002.47 1002.25 1002.17 1002.13 1001.81 1002.71 1003.68 1004.05 1004.29 1004.51 1004.57 1004.33 1004.00 1004.06 1004.23 1004.61 1005.47 1005.62 1005.28 1004.77 1005.05 1005.00 1005.37 1006.00 1006.76 1007.64 1008.53 1009.26
1014.03 1012.31 1009.70 1009.68 1008.63 1007.16 1005.85 1004.64 1004.05 1003.44 1003.04 1002.47 1002.32 1002.29 1002.53 1003.43 1004.23 1004.11 1003.68 1003.57 1002.88 1002.67 1002.78 1003.67 1005.05 1005.49 1005.34 1005.42 1005.04 1004.51 1004.62 1005.04 1005.28 1005.51 1005.34 1005.31 1005.19 1005.70 1005.84 1006.18 1006.90 1007.41 1008.52 1009.35 1010.02
1014.21 1012.69 1010.35 1009.44 1008.88 1008.26 1006.96 1005.02 1004.52 1003.78 1004.04 1003.52 1002.96 1003.11 1003.45 1003.96 1004.37 1004.55 1004.28 1004.11 1003.94 1003.71 1003.72 1004.19 1006.22 1006.07 1006.27 1005.82 1005.41 1005.14 1004.96 1005.27 1005.26 1005.39 1005.09 1005.21 1005.20 1005.93 1006.33 1006.65 1007.43 1008.26 1009.10 1009.74 1010.27
1013.90 1012.85 1011.55 1010.16 1009.22 1008.79 1007.89 1006.23 1005.08 1004.82 1004.54 1004.20 1003.69 1003.41 1004.12 1005.09 1005.19 1005.10 1004.65 1004.67 1004.76 1004.56 1004.96 1005.22 1006.05 1006.57 1006.53 1006.28 1005.86 1005.35 1005.21 1005.31 1005.21 1005.43 1005.41 1005.18 1005.58 1005.74 1006.37 1006.94 1007.69 1008.69 1009.77 1010.14 1010.77
1013.68 1012.79 1012.02 1011.17 1009.96 1008.96 1007.59 1006.92 1005.99 1005.46 1005.40 1005.01 1004.84 1005.08 1004.93 1005.82 1006.17 1005.42 1004.12 1004.43 1004.41 1005.18 1005.46 1005.83 1006.17 1006.38 1006.53 1006.45 1006.25 1006.00 1005.84 1005.71 1005.80 1005.77 1005.74 1005.71 1005.58 1006.13 1007.02 1007.54 1008.50 1009.31 1010.15 1010.44 1011.22
1013.37 1012.96 1012.85 1011.17 1009.95 1009.17 1008.04 1007.51 1006.70 1006.53 1005.78 1005.92 1005.80 1005.69 1005.75 1006.30 1006.21 1006.26 1004.75 1004.83 1004.84 1005.33 1005.90 1006.08 1006.27 1006.70 1006.87 1007.19 1006.80 1006.30 1005.56 1005.43 1005.39 1005.51 1005.50 1005.24 1005.40 1006.58 1007.31 1007.93 1008.90 1009.82 1010.56 1011.02 1011.47
Wind_Speed
14 14 14 14 14 14 14 13 12 12 12 11 11 12 10 12 12 6 10 11 9 12 8 12 6 6 2 3 2 2 7 10 12 13 9 6 7 2 5 5 6 4 2 3 8
15 15 15 15 14 14 14 14 12 13 14 13 12 12 10 11 13 17 14 12 15 9 9 11 11 12 5 5 5 7 6 10 5 11 8 15 15 11 7 10 4 4 8 6 8
17 16 16 16 16 14 14 14 13 13 13 14 13 12 10 8 7 8 8 18 13 17 7 4 15 7 6 4 6 5 7 5 5 10 12 17 8 4 12 17 9 7 4 6 6
19 19 18 18 17 16 16 15 14 15 15 12 11 12 7 2 5 2 10 20 17 10 9 12 10 9 7 9 6 6 8 11 5 9 7 14 11 14 15 18 15 7 8 3 5
18 19 19 19 18 17 16 16 15 15 14 12 10 9 2 3 12 1 15 18 15 11 13 10 14 6 8 7 7 10 11 8 13 14 15 14 16 18 18 18 20 13 8 1 5
19 19 19 20 19 18 17 15 14 15 14 10 9 4 2 7 1 4 11 15 13 13 12 11 10 6 5 5 10 7 13 14 11 15 10 17 22 18 13 14 24 19 19 7 3
16 17 19 19 19 19 17 17 16 16 13 8 9 6 6 16 7 5 12 7 9 8 9 7 4 6 5 6 5 3 8 10 13 15 13 13 20 21 13 18 21 13 16 14 8
19 19 18 19 19 19 18 18 19 18 12 7 9 7 11 3 5 7 8 4 11 4 6 8 7 4 1 2 1 3 2 7 5 13 12 15 17 19 13 19 19 19 15 7 13
18 18 20 21 20 18 17 17 18 13 4 8 7 4 11 4 7 12 13 9 13 2 5 8 4 3 3 1 3 3 6 7 11 13 6 15 15 21 21 17 17 14 14 11 14
20 18 21 20 20 18 15 16 11 3 7 6 2 5 7 5 6 8 12 18 6 10 5 4 4 6 4 5 5 5 5 6 10 1 16 15 20 18 17 20 16 13 15 14 17
20 21 21 22 21 17 13 3 3 4 7 12 9 6 3 2 8 8 12 11 10 6 7 5 6 10 12 15 11 8 11 14 16 8 9 20 22 20 15 16 17 16 18 19 22
21 22 22 21 21 23 4 5 5 3 11 22 19 15 9 4 1 9 17 11 8 9 8 6 11 14 11 9 14 15 16 18 15 4 9 7 19 18 9 12 15 16 20 15 17
21 22 23 24 26 4 5 9 2 4 6 7 10 11 10 13 10 11 21 11 13 12 14 9 2 17 12 11 12 16 14 14 12 7 4 3 6 8 7 12 10 10 18 15 15
19 22 22 21 5 7 9 5 8 6 6 6 8 8 10 10 9 12 21 16 6 17 11 11 12 11 11 12 13 15 14 17 14 6 7 3 3 3 3 9 12 11 11 18 14
21 19 20 9 9 5 3 5 3 3 8 5 5 7 11 16 10 11 21 13 16 9 8 9 10 14 13 11 11 8 7 15 8 7 4 4 4 4 2 6 8 11 10 9 9
22 22 19 9 6 15 9 10 3 6 11 4 8 9 12 9 6 8 14 12 7 11 7 13 3 5 5 5 10 5 4 4 3 3 8 1 4 3 4 3 2 3 5 8 11
27 26 21 11 7 2 5 5 5 8 8 5 6 10 18 11 9 11 16 17 14 15 14 9 13 8 8 9 6 9 7 6 7 7 7 1 5 1 3 1 4 6 7 10 12
29 32 10 10 10 10 1 4 11 6 14 12 3 8 13 11 15 11 16 16 15 12 8 11 10 13 9 14 7 9 11 6 11 8 6 3 6 4 1 5 6 6 10 12 11
27 7 8 5 10 8 9 9 12 12 8 9 3 5 10 11 9 16 14 18 17 17 9 9 10 3 5 4 7 6 7 1 6 2 4 2 2 5 2 5 8 12 12 11 9
11 9 7 4 13 10 9 17 16 15 5 3 7 8 12 11 11 18 15 14 15 19 16 5 4 4 5 5 5 4 10 5 2 6 7 4 3 5 5 9 13 14 13 10 8
7 9 6 5 8 6 11 11 22 12 10 8 8 5 8 4 10 11 15 3 18 15 16 13 3 3 2 4 7 6 5 4 5 0 4 6 4 1 4 12 15 12 9 9 9
6 7 3 3 3 4 11 9 10 9 11 10 6 10 12 13 3 5 3 1 3 11 14 3 3 5 0 2 2 2 3 5 6 6 1 1 3 6 5 12 12 9 8 8 10
7 6 4 4 4 5 12 14 8 11 15 12 10 1 6 7 4 5 3 5 1 4 9 6 2 1 3 3 1 4 4 5 6 2 8 8 3 3 6 8 5 11 10 10 10
4 6 4 1 3 10 9 8 12 7 9 9 3 2 5 6 2 8 7 3 4 5 11 10 2 5 7 3 2 5 7 7 8 5 7 9 7 5 5 7 8 8 10 10 8
2 4 4 6 6 13 13 8 3 4 2 2 1 5 11 5 3 6 5 7 3 2 6 6 10 14 10 11 3 3 7 7 7 6 7 5 8 7 7 9 10 9 9 9 7
3 3 5 8 10 12 6 4 6 1 4 6 3 5 11 7 6 12 7 2 3 4 4 1 5 4 4 2 1 4 6 8 10 9 9 8 12 6 2 6 11 11 10 9 5
2 4 4 5 7 7 4 9 10 2 3 8 4 3 12 8 1 6 9 7 6 4 4 3 6 3 3 2 0 9 13 15 13 11 12 14 13 7 6 9 10 9 6 6 5
Wind_Direction
349 347 346 345 342 340 338 333 328 323 319 316 323 319 302 302 302 284 245 226 197 216 163 131 131 155 137 119 110 155 224 233 229 217 227 216 242 216 319 262 289 295 114 323 149
341 339 338 335 336 335 332 332 328 327 324 320 319 320 311 309 293 256 241 214 219 200 158 152 145 146 146 153 163 208 225 222 222 230 246 247 248 264 306 308 294 236 92 104 155
335 332 332 330 329 327 326 323 321 321 323 321 315 319 321 327 279 241 213 195 192 167 165 140 147 143 158 171 175 161 241 202 228 237 236 253 247 261 257 267 277 280 126 104 165
333 332 331 330 326 323 322 320 319 318 318 315 315 313 325 346 277 64 123 166 162 174 149 136 158 153 158 180 176 217 221 222 233 231 244 257 272 252 244 256 275 302 312 82 133
332 330 330 329 327 325 320 316 309 305 307 304 303 298 309 234 254 265 146 160 167 173 173 156 163 149 177 176 167 222 241 224 236 243 248 265 264 256 260 266 275 289 261 238 119
332 331 330 329 328 324 319 311 301 298 298 291 281 255 223 251 241 276 171 156 169 169 179 171 180 178 136 174 201 201 242 253 244 236 236 244 255 248 250 272 268 269 260 205 243
331 329 328 328 327 326 318 307 301 295 285 272 252 198 230 247 110 76 137 180 181 176 162 178 159 188 153 160 254 313 289 278 243 240 245 223 250 253 263 255 260 267 257 217 221
329 327 324 323 322 319 316 313 309 306 272 230 241 184 253 224 235 217 201 101 160 155 173 141 139 146 211 335 347 270 252 274 287 208 229 194 252 260 250 251 246 253 270 298 243
324 323 320 318 318 321 317 314 312 316 143 178 156 204 259 295 211 204 184 148 161 228 100 145 167 140 157 219 299 200 261 243 289 212 205 188 238 245 243 236 234 227 235 258 275
322 319 320 320 321 320 313 305 299 300 118 141 111 237 240 206 172 156 171 147 142 155 140 136 138 166 155 185 210 188 227 245 259 210 221 210 237 237 229 202 207 224 230 244 247
325 322 321 321 319 315 315 308 208 204 222 206 189 256 282 232 144 159 164 148 132 162 167 187 190 199 198 202 233 267 285 278 271 260 208 222 228 237 250 201 206 223 221 210 220
325 324 323 321 318 316 251 216 235 358 274 227 234 245 266 315 318 157 157 165 172 174 135 150 226 217 230 220 226 244 263 267 284 261 214 224 230 235 215 237 220 210 218 217 218
327 326 327 325 319 313 250 244 260 15 258 250 198 220 218 190 221 201 175 166 180 193 190 200 175 215 207 223 219 235 241 258 266 318 192 204 237 235 231 230 242 223 220 221 220
323 322 325 328 321 338 275 274 262 211 268 239 207 237 171 168 214 187 188 175 173 201 182 220 228 212 212 238 227 250 225 245 263 263 234 263 257 183 278 221 193 186 199 210 216
317 312 313 318 284 255 298 359 94 233 285 170 165 133 156 179 135 189 184 188 197 165 181 198 189 209 222 222 184 249 240 216 230 223 279 185 237 113 222 203 204 173 187 188 177
311 311 312 300 240 248 264 328 268 220 243 222 143 166 164 202 163 133 172 194 168 186 208 227 187 206 215 236 200 143 145 102 121 167 233 152 263 142 155 164 134 183 157 167 160
315 310 301 266 241 201 177 163 228 238 311 202 179 173 187 179 177 174 176 187 187 194 208 208 235 250 230 249 191 194 195 191 206 205 244 127 206 61 160 223 266 239 156 143 138
318 311 280 234 220 247 205 181 235 248 249 299 300 173 193 163 203 169 180 191 202 193 199 210 218 213 207 218 217 190 208 221 216 210 209 173 205 149 309 285 249 164 143 129 122
317 302 293 262 210 186 183 198 217 215 253 317 314 213 215 203 186 194 197 203 198 196 204 185 219 160 198 173 187 162 206 132 111 80 225 168 218 243 92 66 125 128 132 133 119
320 314 292 310 155 167 217 217 215 212 274 302 296 170 283 203 181 189 182 202 194 195 205 180 178 190 145 147 70 222 137 164 165 203 233 188 244 240 177 145 150 151 147 139 113
312 319 343 151 167 194 221 229 225 221 276 269 268 174 323 254 226 195 191 149 194 185 196 207 224 169 229 204 174 151 165 77 106 99 238 243 212 191 220 172 160 154 147 147 144
322 307 138 258 254 233 241 234 232 251 256 265 256 226 190 281 229 333 201 334 343 147 164 160 159 223 310 357 333 101 148 180 224 193 152 326 215 6 199 165 160 150 136 125 124
313 283 301 250 262 293 304 266 282 290 295 262 234 206 146 188 205 223 275 345 172 115 148 157 19 75 200 189 242 221 143 95 87 90 213 228 221 59 106 126 138 139 137 132 131
295 310 290 286 314 345 328 287 233 287 309 298 254 136 44 140 69 206 185 349 345 88 99 77 83 175 199 359 285 201 192 182 196 225 240 235 237 157 154 153 153 141 142 142 138
208 264 284 314 331 315 292 293 324 299 245 300 220 247 151 33 79 226 152 140 94 128 85 150 174 194 195 200 190 158 177 172 200 222 226 254 218 222 203 192 178 157 163 149 141
276 282 347 289 293 315 303 306 315 347 311 327 316 133 110 118 264 290 131 162 137 100 102 188 118 154 129 105 210 224 204 212 225 234 248 246 252 260 148 150 155 163 172 148 121
333 301 296 277 285 298 300 341 321 325 209 60 343 117 124 126 349 321 74 76 97 106 109 86 131 133 192 48 293 262 243 234 232 230 243 251 258 170 163 178 163 150 138 100 54